Flag for United Kingdom Weather past 2 weeks in London, England, United Kingdom

Now
64 °F

Clear.


Feels Like: 64 °F
Forecast: 59 / 70 °F
Wind: 10 mph from Southwest

Location: Northolt

Current Time: Aug 3, 2015 at 11:07:13 PM

Latest Report: Aug 3, 2015 at 9:50 PM


Visibility: 10 mi

Pressure: 29.86 "Hg

Humidity: 68%

Dew point: 54 °F

Location of LondonLocation

Historic Weather in London — Graph

°F

London temperature yesterday

Maximum temperature yesterday: 77 °F (at 2:50 PM)
Minimum temperature yesterday: 48 °F (at 5:50 AM)
Average temperature yesterday: 65 °F

Past Weeks' High & Low Weather Summary

 TemperatureHumidityPressure
High77 °F (Jul 21, 1:50 PM)100% (Jul 24, 2:50 PM)30.12 "Hg (Jul 24, 2:50 PM)
Low45 °F (Jul 31, 4:50 AM)28% (Jul 19, 8:50 PM)29.42 "Hg (Jul 26, 7:50 PM)
Average61 °F70%29.88 "Hg
* Reported Jul 19 8:50 PM — Aug 3 8:50 PM, London, Weather by CustomWeather, © 2015

Note: Actual official high and low records may vary slightly from our data, if they occured in-between our weather recording intervals... More about our weather records

Advertising

London weather history for previous 24 hours

 ConditionsComfort  
Time TempWeatherWind HumidityBarometerVisibility
8:50 PM
Mon, Aug 3
66 °FScattered clouds.10 mph73%29.86 "HgN/A
7:50 PM68 °FBroken clouds.12 mph69%29.83 "HgN/A
6:50 PM68 °FPartly sunny.14 mph64%29.83 "HgN/A
5:50 PM70 °FLight rain. Partly sunny.14 mph64%29.83 "HgN/A
4:50 PM70 °FBroken clouds.14 mph64%29.83 "HgN/A
3:50 PM73 °FBroken clouds.16 mph57%29.86 "HgN/A
2:50 PM72 °FBroken clouds.16 mph61%29.86 "HgN/A
1:50 PM72 °FBroken clouds.20 mph61%29.86 "HgN/A
12:50 PM72 °FBroken clouds.16 mph57%29.86 "HgN/A
11:50 AM72 °FBroken clouds.15 mph61%29.86 "HgN/A
10:50 AM70 °FPartly sunny.14 mph69%29.86 "HgN/A
9:50 AM70 °FPartly sunny.14 mph69%29.86 "HgN/A
8:50 AM68 °FPartly sunny.13 mph78%29.83 "HgN/A
7:50 AM64 °FBroken clouds.8 mph83%29.83 "HgN/A
6:50 AM63 °FPartly sunny.9 mph83%29.83 "HgN/A
5:50 AM59 °FClear.6 mph82%29.80 "HgN/A
4:50 AM57 °FClear.5 mph77%29.80 "HgN/A
3:50 AM59 °FClear.2 mph72%29.80 "HgN/A
2:50 AM61 °FClear.6 mph68%29.80 "HgN/A
1:50 AM63 °FClear.6 mph64%29.80 "HgN/A
12:50 AM64 °FClear.9 mph56%29.83 "HgN/A
11:50 PM
Sun, Aug 2
66 °FPassing clouds.9 mph52%29.86 "HgN/A
Weather by CustomWeather, © 2015

See weather overviewHow to use our weather pages